TimeADT,TemperatureF,Dew PointF,Humidity,Sea Level PressureIn,VisibilityMPH,Wind Direction,Wind SpeedMPH,Gust SpeedMPH,PrecipitationIn,Events,Conditions,WindDirDegrees,DateUTC
12:00 AM,12.2,-2.2,53,29.97,15.0,West,16.1,29.9,N/A,Snow,Low Drifting Snow,280,2013-03-18 03:00:00
1:00 AM,12.2,-2.2,53,29.99,15.0,West,17.3,26.5,N/A,Snow,Low Drifting Snow,280,2013-03-18 04:00:00
2:00 AM,12.2,-2.2,53,30.00,15.0,West,21.9,32.2,N/A,Snow,Low Drifting Snow,280,2013-03-18 05:00:00
3:00 AM,11,-1,43,30.01,15,WNW,19.6,,,Snow,Low Drifting Snow,290,2013-03-18 06:00:00
3:00 AM,10.4,-0.4,62,30.01,15.0,WNW,17.3,29.9,N/A,Snow,Low Drifting Snow,290,2013-03-18 06:00:00
4:00 AM,10.4,-2.2,57,30.04,15.0,West,19.6,29.9,N/A,Snow,Low Drifting Snow,280,2013-03-18 07:00:00
5:00 AM,10.4,-2.2,57,30.04,15.0,West,15.0,26.5,N/A,Snow,Low Drifting Snow,280,2013-03-18 08:00:00
6:00 AM,8.6,-4.0,57,30.06,15.0,West,18.4,26.5,N/A,Snow,Low Drifting Snow,280,2013-03-18 09:00:00
7:00 AM,8.6,-2.2,62,30.08,15.0,WNW,16.1,27.6,N/A,Snow,Low Drifting Snow,290,2013-03-18 10:00:00
8:00 AM,8.6,-4.0,57,30.11,15.0,West,16.1,29.9,N/A,Snow,Low Drifting Snow,280,2013-03-18 11:00:00
9:00 AM,9,-4,40,30.13,15,West,18.4,,,Snow,Low Drifting Snow,280,2013-03-18 12:00:00
9:00 AM,8.6,-4.0,57,30.13,15.0,West,17.3,27.6,N/A,Snow,Low Drifting Snow,280,2013-03-18 12:00:00
10:00 AM,10.4,-4.0,52,30.14,15.0,West,18.4,29.9,N/A,Snow,Low Drifting Snow,280,2013-03-18 13:00:00
11:00 AM,10.4,-4.0,52,30.15,15.0,West,20.7,32.2,N/A,Snow,Low Drifting Snow,280,2013-03-18 14:00:00
12:00 PM,12.2,-2.2,53,30.16,15.0,WNW,17.3,26.5,N/A,Snow,Low Drifting Snow,300,2013-03-18 15:00:00
1:00 PM,14.0,-2.2,49,30.16,15.0,WNW,18.4,29.9,N/A,Snow,Low Drifting Snow,300,2013-03-18 16:00:00
2:00 PM,15.8,-0.4,49,30.15,15.0,WNW,16.1,26.5,N/A,Snow,Low Drifting Snow,300,2013-03-18 17:00:00
3:00 PM,17,-1,29,30.14,15,West,19.6,,,,Scattered Clouds,280,2013-03-18 18:00:00
3:00 PM,17.6,-0.4,45,30.14,15.0,West,20.7,29.9,N/A,,Partly Cloudy,280,2013-03-18 18:00:00
4:00 PM,19.4,-0.4,42,30.14,15.0,WNW,17.3,28.8,N/A,,Partly Cloudy,290,2013-03-18 19:00:00
5:00 PM,19.4,-2.2,39,30.14,15.0,West,24.2,32.2,N/A,,Partly Cloudy,280,2013-03-18 20:00:00
6:00 PM,21.2,1.4,42,30.16,15.0,NW,15.0,26.5,N/A,,Partly Cloudy,310,2013-03-18 21:00:00
7:00 PM,19.4,1.4,46,30.16,15.0,WNW,12.7,25.3,N/A,,Partly Cloudy,300,2013-03-18 22:00:00
8:00 PM,17.6,5.0,58,30.20,15.0,NW,6.9,-,N/A,,Partly Cloudy,320,2013-03-18 23:00:00
9:00 PM,19,5,40,30.22,15,NNW,11.5,,,,Scattered Clouds,330,2013-03-19 00:00:00
9:00 PM,19.4,5.0,54,30.22,15.0,NNW,11.5,21.9,N/A,,Partly Cloudy,330,2013-03-19 00:00:00
10:00 PM,17.6,5.0,58,30.23,15.0,NW,10.4,-,N/A,,Partly Cloudy,320,2013-03-19 01:00:00
11:00 PM,19.4,5.0,54,30.25,15.0,NNW,10.4,21.9,N/A,,Partly Cloudy,330,2013-03-19 02:00:00